Location: Newark
(52.2583°N, 7.1190°W)
Time: 10:18:23
(UTC+00:00)

N. Korean satellite - Pass Details

Date: 26 October 2019
Orbit: 456 x 506 km, 97.2° (Epoch: 11 November)

Event Time Altitude Azimuth Distance (km) Brightness Sun altitude
Rises 05:20:54 0° 29° (NNE) 2,578 10.7 -17.6°
Reaches altitude 10° 05:23:45 10° 53° (NE) 1,700 10.1 -17.2°
Maximum altitude 05:25:53 15° 89° (E) 1,426 10.1 -16.9°
Drops below altitude 10° 05:28:02 10° 125° (SE) 1,705 10.1 -16.5°
Sets 05:30:53 0° 150° (SSE) 2,590 10.7 -16.1°
